Hourly Data Report for September 13, 2020

GIMLI CLIMATE
MANITOBA
Current Station Operator: ECCC - MSC

50°38'00.000" N
97°03'00.000" W
230.10 m
5031042
71748
PGH

Download Data

Hourly Data (September 2020)
Hourly Data Report for September 13, 2020
TIME Temp Definition
°C
Dew Point Definition
°C
Rel Hum Definition
%
Wind Dir Definition
10's deg

Wind Spd Definition
km/h
Visibility Definition
km
Stn Press Definition
kPa
Hmdx Definition


Wind Chill Definition


Weather Definition


00:00 9.7 7.1 84 32 10   98.69     LegendNANA
01:00 9.6 6.3 80 31 8   98.72     LegendNANA
02:00 8.6 5.6 81 30 7   98.76     LegendNANA
03:00 7.4 4.6 82 27 9   98.82     LegendNANA
04:00 6.9 4.0 82 28 9   98.89     LegendNANA
05:00 6.4 3.8 84 29 11   98.94     LegendNANA
06:00 6.1 3.7 84 30 11   99.00     LegendNANA
07:00 7.3 4.2 81 31 14   99.09     LegendNANA
08:00 9.0 4.8 75 32 15   99.17     LegendNANA
09:00 10.5 5.4 70 33 18   99.28     LegendNANA
10:00 11.0 5.0 66 34 16   99.39     LegendNANA
11:00 11.7 4.8 63 34 20   99.43     LegendNANA
12:00 11.8 3.5 57 35 21   99.48     LegendNANA
13:00 13.3 3.0 50 33 13   99.53     LegendNANA
14:00 13.6 3.2 49 31 16   99.57     LegendNANA
15:00 13.2 2.6 49 32 13   99.60     LegendNANA
16:00 12.9 3.8 54 31 13   99.66     LegendNANA
17:00 12.6 3.9 55 33 13   99.71     LegendNANA
18:00 11.5 3.7 59 31 9   99.74     LegendNANA
19:00 8.7 3.5 70 36 8   99.77     LegendNANA
20:00 6.8 3.1 77 34 6   99.82     LegendNANA
21:00 3.7 1.7 87 33 4   99.85     LegendNANA
22:00 2.7 0.9 88 34 6   99.89     LegendNANA
23:00 1.7 0.0 88 29 3   99.93     LegendNANA

Notes on Data Quality.

Legend

  • E = Estimated
  • M = Missing
  • NA = Not Available*
  • [empty] = Indicates an unobserved value
Date modified: